Location: Albuquerque Trailhead
(34.7934°N, 106.3736°W)
Time: 05:43:15
(UTC+00:00)

Cosmos 2369 Rocket - Pass Details

Date: 20 June 2021
Orbit: 827 x 854 km, 71.0° (Epoch: 29 July)

Event Time Altitude Azimuth Distance (km) Brightness Sun altitude
Rises 07:17:28 0° 348° (NNW) 3,428 6.4 -31.7°
Reaches altitude 10° 07:20:11 10° 358° (N) 2,488 5.5 -31.7°
Maximum altitude 07:25:18 33° 62° (ENE) 1,400 3.5 -31.6°
Enters shadow 07:25:56 32° 75° (ENE) 1,421 3.4 -31.6°
